TimeEST,TemperatureF,Dew PointF,Humidity,Sea Level PressureIn,VisibilityMPH,Wind Direction,Wind SpeedMPH,Gust SpeedMPH,PrecipitationIn,Events,Conditions,WindDirDegrees,DateUTC
12:51 AM,5.0,-9.9,50,30.13,10.0,Variable,4.6,-,N/A,,Clear,0,2013-01-25 05:51:00
1:51 AM,5.0,-9.9,50,30.14,10.0,Variable,6.9,-,N/A,,Clear,0,2013-01-25 06:51:00
2:51 AM,5.0,-9.9,50,30.16,10.0,Variable,6.9,16.1,N/A,,Clear,0,2013-01-25 07:51:00
3:51 AM,6.1,-9.0,50,30.16,10.0,WNW,11.5,21.9,N/A,,Clear,300,2013-01-25 08:51:00
4:51 AM,5.0,-9.0,52,30.16,10.0,WNW,11.5,-,N/A,,Clear,300,2013-01-25 09:51:00
6:51 AM,6.1,-9.0,50,30.18,10.0,West,9.2,20.7,N/A,,Clear,280,2013-01-25 11:51:00
7:51 AM,6.1,-9.0,50,30.19,10.0,West,11.5,18.4,N/A,,Clear,280,2013-01-25 12:51:00
8:51 AM,7.0,-9.0,48,30.21,10.0,West,8.1,16.1,N/A,,Clear,280,2013-01-25 13:51:00
9:51 AM,10.0,-8.0,44,30.22,10.0,West,8.1,17.3,N/A,,Clear,270,2013-01-25 14:51:00
10:51 AM,12.9,-7.1,41,30.21,10.0,WNW,10.4,-,N/A,,Clear,290,2013-01-25 15:51:00
11:51 AM,15.1,-7.1,37,30.18,10.0,WNW,8.1,-,N/A,,Clear,300,2013-01-25 16:51:00
12:51 PM,18.0,-6.0,35,30.16,10.0,WSW,6.9,-,N/A,,Clear,250,2013-01-25 17:51:00
1:51 PM,19.0,-7.1,31,30.13,10.0,WNW,8.1,-,N/A,,Clear,290,2013-01-25 18:51:00
2:51 PM,19.0,-7.1,31,30.12,10.0,West,4.6,-,N/A,,Clear,260,2013-01-25 19:51:00
3:51 PM,18.0,-9.0,30,30.12,10.0,WSW,3.5,-,N/A,,Clear,250,2013-01-25 20:51:00
4:51 PM,18.0,-7.1,33,30.12,10.0,Variable,4.6,-,N/A,,Clear,0,2013-01-25 21:51:00
6:51 PM,17.1,-8.0,33,30.10,10.0,Calm,Calm,-,N/A,,Mostly Cloudy,0,2013-01-25 23:51:00
7:51 PM,16.0,-6.0,38,30.08,10.0,Calm,Calm,-,N/A,,Overcast,0,2013-01-26 00:51:00
8:51 PM,16.0,-4.0,41,30.07,10.0,Calm,Calm,-,N/A,,Overcast,0,2013-01-26 01:51:00
9:51 PM,16.0,-5.1,39,30.06,10.0,Calm,Calm,-,N/A,,Overcast,0,2013-01-26 02:51:00
10:51 PM,16.0,-4.0,41,30.04,10.0,NW,5.8,-,N/A,,Overcast,320,2013-01-26 03:51:00
11:51 PM,16.0,-5.1,39,30.04,10.0,Calm,Calm,-,N/A,,Overcast,0,2013-01-26 04:51:00